Hourly Weather Las Rozas de Madrid

Today, 4 July, Saturday

Time Temperature Precipitation Wind Pressure Humidity
00:00 +22°C° 0 mm 3 mps 704 mmHg 32%
01:00 +21°C° 0 mm 3 mps 703 mmHg 33%
02:00 +21°C° 0 mm 3 mps 703 mmHg 35%
03:00 +20°C° 0 mm 3 mps 703 mmHg 37%
04:00 +20°C° 0 mm 2 mps 703 mmHg 38%
05:00 +20°C° 0 mm 2 mps 704 mmHg 39%
06:00 +21°C° 0 mm 2 mps 704 mmHg 40%
07:00 +23°C° 0 mm 2 mps 704 mmHg 37%
08:00 +25°C° 0 mm 2 mps 705 mmHg 35%
09:00 +27°C° 0 mm 2 mps 705 mmHg 32%
10:00 +28°C° 0 mm 1 mps 705 mmHg 28%
11:00 +30°C° 0 mm 1 mps 705 mmHg 23%
12:00 +32°C° 0 mm 1 mps 705 mmHg 18%
13:00 +32°C° 0 mm 1 mps 704 mmHg 17%
14:00 +33°C° 0 mm 1 mps 704 mmHg 15%
15:00 +34°C° 0 mm 1 mps 704 mmHg 14%
16:00 +34°C° 0 mm 1 mps 704 mmHg 15%
17:00 +34°C° 0 mm 1 mps 704 mmHg 15%
18:00 +34°C° 0 mm 2 mps 703 mmHg 16%
19:00 +32°C° 0 mm 2 mps 704 mmHg 19%
20:00 +30°C° 0 mm 2 mps 704 mmHg 22%
21:00 +28°C° 0 mm 2 mps 704 mmHg 26%
22:00 +27°C° 0 mm 3 mps 704 mmHg 27%
23:00 +26°C° 0 mm 4 mps 704 mmHg 28%

Tomorrow, 5 July, Sunday

Time Temperature Precipitation Wind Pressure Humidity
00:00 +25°C° 0 mm 4 mps 705 mmHg 29%
01:00 +25°C° 0 mm 4 mps 704 mmHg 30%
02:00 +24°C° 0 mm 3 mps 704 mmHg 32%
03:00 +22°C° 0 mm 3 mps 704 mmHg 33%
04:00 +23°C° 0 mm 2 mps 704 mmHg 33%
05:00 +23°C° 0 mm 2 mps 704 mmHg 34%
06:00 +24°C° 0 mm 2 mps 704 mmHg 35%
07:00 +25°C° 0 mm 2 mps 704 mmHg 35%
08:00 +27°C° 0 mm 2 mps 704 mmHg 34%
09:00 +29°C° 0 mm 1 mps 704 mmHg 34%
10:00 +30°C° 0 mm 1 mps 704 mmHg 30%
11:00 +32°C° 0 mm 1 mps 704 mmHg 25%
12:00 +34°C° 0 mm 1 mps 704 mmHg 21%
13:00 +35°C° 0 mm 1 mps 703 mmHg 19%
14:00 +37°C° 0 mm 2 mps 703 mmHg 17%
15:00 +37°C° 0 mm 2 mps 703 mmHg 15%
16:00 +37°C° 0 mm 2 mps 703 mmHg 15%
17:00 +36°C° 0 mm 1 mps 702 mmHg 15%
18:00 +36°C° 0 mm 1 mps 702 mmHg 15%
19:00 +34°C° 0 mm 1 mps 702 mmHg 17%
20:00 +32°C° 0 mm 1 mps 702 mmHg 20%
21:00 +30°C° 0 mm 1 mps 702 mmHg 23%
22:00 +29°C° 0 mm 2 mps 702 mmHg 25%
23:00 +28°C° 0 mm 3 mps 702 mmHg 28%

Day after tomorrow, 6 July, Monday

Time Temperature Precipitation Wind Pressure Humidity
00:00 +28°C° 0 mm 4 mps 702 mmHg 30%
01:00 +27°C° 0 mm 3 mps 702 mmHg 34%
02:00 +26°C° 0 mm 3 mps 702 mmHg 38%
03:00 +25°C° 0 mm 3 mps 701 mmHg 42%
04:00 +25°C° 0 mm 2 mps 701 mmHg 43%
05:00 +25°C° 0 mm 2 mps 701 mmHg 45%
06:00 +25°C° 0 mm 2 mps 701 mmHg 46%
07:00 +27°C° 0 mm 2 mps 702 mmHg 41%
08:00 +29°C° 0 mm 2 mps 702 mmHg 37%
09:00 +31°C° 0 mm 2 mps 702 mmHg 32%
10:00 +34°C° 0 mm 2 mps 702 mmHg 27%
11:00 +35°C° 0 mm 2 mps 702 mmHg 23%
12:00 +36°C° 0 mm 1 mps 702 mmHg 18%
13:00 +38°C° 0 mm 2 mps 701 mmHg 17%
14:00 +38°C° 0 mm 2 mps 701 mmHg 15%
15:00 +39°C° 0 mm 2 mps 701 mmHg 14%
16:00 +38°C° 0 mm 3 mps 701 mmHg 15%
17:00 +38°C° 0 mm 3 mps 701 mmHg 16%
18:00 +37°C° 0 mm 4 mps 700 mmHg 18%
19:00 +35°C° 0 mm 4 mps 701 mmHg 26%
20:00 +32°C° 0 mm 5 mps 701 mmHg 34%
21:00 +28°C° 0 mm 6 mps 701 mmHg 42%
22:00 +27°C° 0 mm 5 mps 701 mmHg 44%
23:00 +26°C° 0 mm 5 mps 701 mmHg 46%

7 July, Tuesday

Time Temperature Precipitation Wind Pressure Humidity
00:00 +25°C° 0 mm 4 mps 701 mmHg 48%
01:00 +23°C° 0 mm 4 mps 701 mmHg 47%
02:00 +23°C° 0 mm 4 mps 700 mmHg 46%
03:00 +24°C° 0 mm 3 mps 700 mmHg 45%
04:00 +24°C° 0 mm 3 mps 700 mmHg 43%
05:00 +24°C° 0 mm 3 mps 700 mmHg 42%
06:00 +24°C° 0 mm 2 mps 700 mmHg 40%
07:00 +26°C° 0 mm 2 mps 700 mmHg 37%
08:00 +28°C° 0 mm 2 mps 700 mmHg 33%
09:00 +30°C° 0 mm 2 mps 700 mmHg 29%
10:00 +32°C° 0 mm 2 mps 700 mmHg 27%
11:00 +34°C° 0 mm 2 mps 700 mmHg 24%
12:00 +35°C° 0 mm 1 mps 700 mmHg 22%
13:00 +37°C° 0 mm 2 mps 700 mmHg 19%
14:00 +38°C° 0 mm 3 mps 699 mmHg 17%
15:00 +40°C° 0 mm 4 mps 699 mmHg 14%
16:00 +40°C° 0 mm 4 mps 699 mmHg 14%
17:00 +40°C° 0 mm 4 mps 699 mmHg 13%
18:00 +40°C° 0 mm 4 mps 699 mmHg 13%
19:00 +37°C° 0 mm 4 mps 699 mmHg 14%
20:00 +35°C° 0 mm 3 mps 699 mmHg 16%
21:00 +33°C° 0 mm 3 mps 699 mmHg 17%
22:00 +30°C° 0 mm 3 mps 699 mmHg 21%
23:00 +29°C° 0 mm 3 mps 699 mmHg 24%

8 July, Wednesday

Time Temperature Precipitation Wind Pressure Humidity
00:00 +27°C° 0 mm 3 mps 699 mmHg 28%
01:00 +26°C° 0 mm 3 mps 698 mmHg 36%
02:00 +25°C° 0 mm 3 mps 698 mmHg 45%
03:00 +24°C° 0 mm 2 mps 698 mmHg 53%
04:00 +24°C° 0 mm 3 mps 698 mmHg 55%
05:00 +24°C° 0 mm 3 mps 698 mmHg 57%
06:00 +24°C° 0 mm 3 mps 698 mmHg 59%
07:00 +26°C° 0 mm 3 mps 698 mmHg 53%
08:00 +27°C° 0 mm 3 mps 698 mmHg 48%
09:00 +29°C° 0 mm 4 mps 698 mmHg 42%
10:00 +31°C° 0 mm 3 mps 698 mmHg 35%
11:00 +34°C° 0 mm 3 mps 698 mmHg 29%
12:00 +35°C° 0 mm 3 mps 698 mmHg 22%
13:00 +36°C° 0 mm 4 mps 698 mmHg 19%
14:00 +37°C° 0 mm 5 mps 697 mmHg 16%
15:00 +39°C° 0 mm 5 mps 697 mmHg 13%
16:00 +38°C° 0 mm 6 mps 697 mmHg 12%
17:00 +38°C° 0 mm 6 mps 697 mmHg 11%
18:00 +36°C° 0 mm 6 mps 697 mmHg 10%
19:00 +33°C° 0 mm 5 mps 697 mmHg 18%
20:00 +29°C° 0 mm 5 mps 698 mmHg 26%
21:00 +27°C° 0 mm 4 mps 698 mmHg 34%
22:00 +26°C° 0 mm 4 mps 698 mmHg 42%
23:00 +25°C° 0 mm 4 mps 698 mmHg 49%

9 July, Thursday

Time Temperature Precipitation Wind Pressure Humidity
00:00 +23°C° 0 mm 4 mps 698 mmHg 56%
01:00 +22°C° 0 mm 4 mps 698 mmHg 58%
02:00 +22°C° 0 mm 3 mps 698 mmHg 61%
03:00 +21°C° 0 mm 3 mps 698 mmHg 63%
04:00 +21°C° 0 mm 3 mps 699 mmHg 63%
05:00 +21°C° 0 mm 2 mps 699 mmHg 62%
06:00 +21°C° 0 mm 2 mps 699 mmHg 61%
07:00 +24°C° 0 mm 2 mps 699 mmHg 54%
08:00 +26°C° 0 mm 2 mps 700 mmHg 48%
09:00 +27°C° 0 mm 1 mps 700 mmHg 41%
10:00 +29°C° 0 mm 2 mps 700 mmHg 36%
11:00 +31°C° 0 mm 2 mps 700 mmHg 32%
12:00 +32°C° 0 mm 2 mps 700 mmHg 27%
13:00 +34°C° 0 mm 3 mps 700 mmHg 25%
14:00 +35°C° 0 mm 3 mps 700 mmHg 22%
15:00 +36°C° 0 mm 4 mps 700 mmHg 20%
16:00 +36°C° 0 mm 4 mps 700 mmHg 20%
17:00 +35°C° 0 mm 4 mps 700 mmHg 20%
18:00 +35°C° 0 mm 5 mps 699 mmHg 21%
19:00 +33°C° 0 mm 4 mps 700 mmHg 25%
20:00 +32°C° 0 mm 4 mps 700 mmHg 29%
21:00 +29°C° 0 mm 3 mps 700 mmHg 34%
22:00 +28°C° 0 mm 3 mps 700 mmHg 39%
23:00 +27°C° 0 mm 3 mps 700 mmHg 43%
Show more